Wind_Speed
31 31 31 30 28 28 27 27 26 26 25 25 24 24 24 24 23 23 22 22 22 22 22 22 22 22 22 22 22 22 23 23 23 24 24 24 25 26 26 26 27 27 28
32 32 32 32 31 30 30 29 28 27 26 26 25 25 25 25 25 24 24 23 23 23 23 22 22 23 23 23 23 24 24 23 24 25 25 26 26 27 27 27 27 28 28
33 33 33 33 33 32 31 31 30 29 28 27 27 26 26 25 25 24 24 24 24 23 23 23 24 24 24 24 24 25 25 25 25 26 26 27 27 28 28 27 28 28 29
34 34 34 34 33 33 32 30 30 30 29 29 28 28 27 26 25 25 25 25 25 25 25 25 25 25 25 25 25 25 26 26 26 27 28 28 28 28 28 28 29 29 30
33 34 34 34 33 33 32 30 30 30 29 29 29 28 28 27 27 27 26 27 27 27 27 27 27 27 26 26 26 26 27 28 28 29 29 29 29 29 29 30 30 30 31
33 34 34 34 34 34 33 31 30 31 31 31 30 29 29 29 29 29 28 28 29 29 29 29 29 29 29 29 29 28 28 29 30 30 30 30 30 30 31 31 31 32 32
33 33 34 34 34 34 34 33 31 32 32 32 32 31 31 31 31 30 30 30 30 30 31 31 31 31 31 31 31 31 31 31 32 32 31 31 31 31 32 33 32 33 32
36 35 35 35 36 36 36 36 34 34 34 33 34 34 33 32 32 32 32 32 32 32 32 32 32 32 33 33 33 33 33 33 33 34 33 33 33 33 33 33 34 34 34
38 37 37 37 38 38 37 36 36 35 35 35 34 35 34 34 34 34 33 34 34 34 34 34 34 34 34 35 34 34 34 35 35 35 35 35 35 35 35 35 35 35 35
40 39 39 38 38 37 37 37 37 36 35 35 35 35 36 36 36 35 36 35 35 35 35 35 36 37 37 37 37 36 37 36 36 36 36 37 37 36 36 37 37 37 37
39 38 38 38 38 38 37 38 38 36 36 35 35 36 35 36 36 36 36 37 37 37 37 38 39 39 39 39 38 38 38 38 38 38 38 38 39 39 39 39 39 39 39
37 37 38 37 37 37 37 38 38 38 38 38 38 38 38 37 37 38 38 38 39 39 40 41 41 41 40 40 40 40 40 40 40 41 41 41 41 41 41 41 42 42 42
38 38 39 38 37 37 38 38 39 40 40 40 39 39 40 39 39 39 40 40 40 40 41 41 42 41 41 42 42 42 41 42 42 43 43 43 44 44 44 44 44 44 45
38 39 40 39 39 39 39 39 40 41 41 41 41 41 42 41 40 40 41 42 43 42 42 43 43 43 42 43 43 43 44 44 44 44 45 46 46 47 47 47 47 47 47
36 37 39 39 39 40 40 40 41 41 41 41 41 41 42 43 44 43 44 45 45 44 44 44 44 45 45 44 45 45 44 45 45 46 47 47 48 49 49 49 50 50 49
37 38 39 40 40 40 41 42 42 42 42 42 42 43 43 44 45 46 46 45 46 46 46 45 46 46 46 47 47 47 47 47 48 48 49 49 50 50 51 51 52 52 51
37 39 39 40 41 41 42 43 44 44 44 45 45 44 45 45 46 46 47 47 47 47 47 46 47 47 47 48 48 49 50 49 50 50 51 51 52 52 53 53 53 52 52
38 39 40 41 42 42 43 44 45 45 46 46 46 46 46 47 47 47 47 48 49 48 48 48 48 48 49 50 50 51 52 52 52 52 53 53 53 54 54 54 54 54 53
39 40 40 41 42 43 44 45 46 47 47 47 47 47 47 48 48 49 50 50 50 50 49 49 49 50 51 52 52 52 53 53 54 54 55 55 56 56 56 55 55 55 55
41 42 41 42 43 44 44 46 47 47 47 48 48 48 48 49 50 51 51 52 51 51 51 51 52 53 53 54 54 55 55 56 56 57 57 57 56 56 56 55 55 55 55
42 42 43 44 44 45 46 47 48 48 49 49 49 49 50 51 51 52 52 53 53 53 53 53 53 54 55 55 56 56 56 56 57 57 57 57 56 56 56 55 55 55 55
42 43 45 45 46 47 48 49 50 50 51 51 52 52 52 52 52 53 54 54 54 55 55 56 56 56 56 56 57 57 57 57 57 57 58 58 57 57 57 57 56 56 55
44 45 46 47 47 48 49 50 51 51 52 52 53 54 55 55 55 55 55 55 55 57 58 58 58 57 57 57 58 58 59 59 59 59 60 59 59 59 58 58 57 57 56
45 46 47 48 49 49 50 50 51 52 52 53 53 54 55 55 56 55 55 55 56 57 58 58 58 58 58 58 58 59 60 60 60 60 61 61 60 60 59 58 57 56 56
46 47 48 48 49 49 49 49 50 51 52 52 53 54 54 55 55 55 56 56 56 57 58 59 59 58 59 59 59 60 60 60 60 59 60 60 59 59 58 57 56 55 54
47 48 49 49 49 49 49 49 50 51 51 52 53 54 55 56 56 56 56 56 57 58 59 59 59 59 59 59 59 59 60 60 60 59 59 59 59 58 56 55 54 53 53
Wind_Direction
240 240 241 242 244 244 245 247 249 251 253 255 258 260 262 264 265 267 269 272 274 275 277 277 278 279 281 283 284 285 286 287 289 290 290 290 290 291 292 293 292 291 290
242 241 241 242 244 244 245 247 250 251 253 255 258 260 262 263 265 267 269 270 272 274 275 276 277 279 281 282 284 285 286 288 290 291 290 290 290 291 292 293 293 293 291
243 242 241 242 244 244 245 247 249 252 253 255 257 259 261 262 264 265 266 268 270 272 274 277 278 278 279 280 282 284 285 287 289 290 291 290 290 291 292 292 292 293 293
244 244 242 243 244 245 246 247 250 251 252 254 256 259 260 260 262 265 266 267 269 271 274 277 279 279 279 279 280 282 284 286 287 289 290 290 289 290 291 291 292 293 294
244 244 243 243 244 246 248 248 250 251 253 254 256 258 258 259 262 264 266 268 270 272 273 275 278 278 278 279 279 280 283 285 287 288 289 289 288 289 290 291 292 292 293
244 244 244 244 245 246 248 249 250 252 254 254 256 257 258 260 262 264 266 268 270 272 274 275 275 277 277 278 279 280 282 285 286 287 287 288 288 289 290 290 291 291 292
245 245 244 244 245 247 249 251 252 254 255 255 257 258 259 260 262 264 266 268 271 272 274 275 276 277 276 277 278 279 281 284 286 286 286 287 287 289 289 290 290 291 291
245 247 245 244 246 249 250 251 254 255 254 256 257 259 260 260 261 264 266 268 269 272 273 274 277 278 277 276 276 277 279 281 283 284 285 285 286 287 288 289 290 290 290
245 245 245 245 246 248 250 251 253 255 255 256 255 257 260 261 262 263 265 267 269 271 273 275 276 278 278 276 276 277 278 279 281 282 283 284 285 285 287 288 289 289 289
244 244 244 245 246 247 249 251 254 256 256 256 256 257 260 261 263 265 266 267 268 270 272 274 276 278 277 276 275 276 278 278 279 280 281 282 283 283 285 287 287 288 287
247 246 246 246 246 247 249 251 255 256 257 257 258 258 260 262 263 266 266 267 268 270 272 273 275 277 277 275 274 275 276 277 278 279 280 281 282 282 283 285 286 287 287
247 246 246 246 248 249 251 253 254 255 256 258 259 260 262 264 265 266 267 268 270 271 273 273 274 276 276 274 273 274 276 276 277 278 278 279 281 282 282 284 285 285 285
247 247 246 246 248 250 251 253 253 255 255 257 259 261 262 264 266 266 267 269 270 272 273 274 275 275 276 275 274 273 275 276 276 277 278 280 281 282 283 283 284 284 284
247 247 247 248 249 251 253 253 254 255 255 257 259 261 262 264 266 267 268 269 270 271 272 274 275 275 275 275 275 274 274 276 276 277 278 279 280 281 283 283 283 284 284
246 247 248 249 251 254 255 255 256 257 257 259 260 262 264 265 265 267 269 270 269 270 271 273 274 276 276 276 276 275 275 276 276 277 278 279 280 281 282 283 283 283 283
250 250 251 251 252 255 256 256 257 256 257 259 261 262 264 266 267 268 269 270 271 271 272 273 275 276 276 276 276 276 276 277 278 278 278 279 280 281 282 282 283 283 283
251 251 252 252 254 255 256 256 257 258 259 260 262 264 265 267 268 269 269 271 272 272 273 274 275 275 276 276 277 277 277 277 278 279 279 279 280 281 282 282 282 283 283
253 251 252 253 256 257 258 258 259 260 261 262 264 265 266 267 268 270 270 271 272 272 273 274 275 276 277 277 277 278 277 278 278 279 280 280 281 281 282 282 283 283 283
253 253 255 255 256 258 259 260 261 261 263 264 265 266 267 268 268 269 270 271 272 273 273 274 275 277 278 278 278 278 278 278 279 280 281 281 281 282 282 283 283 283 283
257 258 256 257 257 259 261 263 264 264 265 266 266 267 268 268 269 269 270 271 272 273 273 274 276 277 279 279 279 278 278 278 279 280 281 282 282 282 282 282 282 283 283
259 259 260 260 260 261 262 264 265 266 267 268 268 268 268 269 270 270 271 271 273 273 274 275 277 278 279 279 279 279 279 279 279 281 281 282 282 282 282 281 282 282 282
258 260 261 262 263 263 263 264 266 267 268 268 268 268 269 270 270 271 271 272 273 274 274 276 277 279 279 279 279 280 280 280 280 280 281 281 281 281 281 281 281 281 281
261 261 262 263 264 265 266 266 267 268 269 270 270 270 270 270 271 271 271 271 272 274 275 275 276 277 279 279 279 279 279 280 281 281 281 282 282 282 281 281 281 281 280
262 262 263 265 265 267 268 268 268 269 269 269 270 271 271 272 271 270 270 271 272 274 274 276 277 277 278 279 279 280 280 280 280 280 281 282 282 282 282 281 281 281 280
264 265 266 267 267 268 268 267 268 269 270 270 270 270 270 271 270 270 270 271 272 274 275 276 277 278 278 279 280 281 281 282 281 281 281 282 282 282 281 281 280 280 280
268 267 267 267 266 267 268 269 269 270 271 271 271 270 270 270 270 271 271 272 273 274 275 275 276 277 278 279 279 280 281 282 282 281 281 282 282 282 281 280 279 279 278
Height
5809 5811 5814 5815 5817 5819 5820 5822 5823 5824 5825 5826 5827 5827 5828 5828 5829 5829 5829 5829 5829 5829 5828 5828 5827 5827 5826 5826 5825 5824 5823 5822 5821 5819 5818 5817 5815 5814 5812 5811 5809 5808 5806
5802 5805 5807 5808 5810 5812 5813 5815 5817 5818 5819 5820 5821 5822 5822 5823 5823 5824 5824 5824 5824 5823 5823 5823 5822 5822 5821 5821 5820 5819 5818 5816 5815 5814 5813 5811 5810 5808 5807 5805 5804 5802 5800
5795 5797 5799 5801 5803 5805 5806 5808 5810 5811 5813 5814 5815 5816 5816 5817 5817 5818 5818 5818 5818 5818 5818 5817 5817 5816 5816 5815 5814 5813 5812 5811 5810 5809 5807 5806 5804 5803 5801 5799 5798 5796 5794
5787 5789 5792 5794 5796 5798 5799 5801 5803 5804 5806 5807 5808 5809 5810 5811 5811 5812 5812 5812 5812 5812 5812 5812 5811 5810 5810 5809 5808 5807 5806 5805 5804 5803 5801 5800 5798 5797 5795 5793 5791 5790 5788
5779 5782 5784 5787 5789 5791 5792 5794 5796 5798 5799 5801 5802 5803 5804 5805 5805 5805 5806 5806 5806 5806 5806 5805 5805 5804 5804 5803 5802 5801 5800 5799 5798 5797 5795 5793 5792 5790 5789 5787 5785 5783 5781
5772 5774 5777 5779 5782 5784 5786 5787 5789 5791 5792 5794 5795 5796 5797 5798 5798 5799 5799 5799 5799 5799 5799 5799 5798 5798 5797 5796 5796 5795 5794 5793 5792 5790 5789 5787 5785 5784 5782 5780 5778 5776 5774
5765 5767 5769 5772 5774 5777 5779 5780 5782 5784 5785 5787 5788 5789 5789 5790 5791 5792 5792 5792 5792 5792 5791 5791 5791 5790 5790 5789 5789 5788 5787 5786 5784 5783 5782 5780 5779 5777 5775 5773 5771 5769 5767
5757 5760 5762 5764 5767 5769 5771 5773 5775 5776 5778 5779 5780 5781 5782 5783 5783 5784 5784 5785 5784 5784 5784 5783 5783 5782 5782 5781 5781 5780 5779 5778 5777 5775 5774 5773 5771 5769 5767 5765 5764 5761 5759
5749 5752 5754 5757 5759 5761 5763 5765 5767 5768 5770 5771 5772 5773 5774 5775 5776 5776 5776 5776 5776 5776 5776 5775 5775 5774 5773 5773 5772 5772 5771 5770 5768 5767 5766 5765 5763 5762 5760 5758 5756 5754 5751
5741 5743 5746 5748 5751 5753 5755 5757 5758 5760 5761 5762 5763 5764 5766 5766 5767 5768 5768 5768 5768 5767 5767 5766 5765 5765 5764 5763 5763 5763 5762 5761 5760 5758 5757 5756 5754 5753 5751 5749 5747 5745 5743
5732 5735 5737 5740 5742 5744 5746 5748 5749 5751 5752 5753 5754 5755 5756 5757 5758 5758 5759 5759 5759 5758 5758 5757 5756 5755 5754 5754 5753 5753 5752 5752 5751 5749 5748 5747 5745 5744 5742 5740 5738 5736 5734
5723 5725 5728 5730 5733 5735 5737 5738 5740 5741 5743 5744 5745 5746 5747 5747 5748 5749 5749 5749 5749 5749 5748 5747 5746 5745 5745 5744 5743 5743 5742 5741 5740 5739 5738 5737 5735 5734 5732 5730 5728 5726 5724
5714 5716 5719 5721 5723 5725 5727 5728 5730 5731 5733 5734 5735 5736 5737 5738 5738 5739 5739 5739 5739 5739 5738 5737 5736 5735 5734 5733 5733 5732 5731 5730 5730 5729 5728 5726 5725 5723 5721 5720 5718 5715 5713
5704 5707 5709 5711 5713 5715 5716 5718 5719 5721 5722 5724 5725 5726 5727 5728 5728 5728 5728 5728 5728 5728 5728 5727 5726 5725 5724 5723 5722 5721 5720 5719 5718 5717 5716 5715 5713 5712 5710 5708 5706 5704 5702
5695 5697 5699 5702 5703 5705 5706 5707 5709 5710 5712 5713 5714 5716 5716 5717 5717 5717 5717 5717 5717 5717 5717 5716 5715 5714 5712 5711 5710 5709 5709 5708 5707 5706 5704 5703 5701 5699 5698 5696 5694 5692 5690
5686 5688 5689 5691 5693 5695 5696 5697 5698 5699 5701 5702 5704 5705 5705 5705 5706 5706 5706 5705 5705 5705 5705 5705 5703 5702 5700 5699 5698 5697 5696 5696 5695 5693 5692 5690 5689 5687 5685 5683 5681 5679 5677
5677 5678 5680 5681 5683 5684 5685 5686 5687 5688 5689 5691 5692 5693 5693 5694 5694 5694 5694 5694 5693 5693 5693 5693 5691 5690 5688 5687 5686 5684 5683 5683 5682 5680 5679 5677 5675 5673 5672 5670 5668 5666 5664
5667 5668 5670 5671 5672 5673 5674 5675 5676 5677 5678 5679 5679 5680 5681 5681 5682 5682 5681 5681 5681 5680 5680 5680 5679 5677 5676 5675 5673 5672 5670 5669 5668 5666 5665 5663 5661 5659 5657 5655 5653 5651 5649
5656 5658 5659 5660 5661 5662 5663 5664 5664 5665 5666 5666 5667 5668 5668 5669 5669 5669 5669 5668 5668 5667 5666 5666 5666 5664 5663 5661 5660 5658 5657 5655 5654 5652 5650 5648 5646 5644 5642 5640 5638 5636 5634
5644 5645 5647 5648 5650 5650 5651 5652 5652 5653 5653 5653 5654 5655 5655 5655 5656 5656 5655 5655 5654 5653 5653 5652 5652 5650 5649 5647 5645 5644 5643 5641 5639 5637 5635 5633 5631 5629 5627 5624 5623 5621 5619
5633 5634 5636 5637 5638 5639 5639 5639 5640 5640 5640 5640 5640 5641 5641 5641 5642 5641 5641 5641 5640 5639 5638 5637 5637 5636 5634 5632 5630 5628 5626 5625 5624 5622 5620 5618 5615 5613 5611 5609 5607 5605 5603
5621 5622 5623 5624 5625 5626 5626 5626 5626 5626 5626 5626 5626 5627 5627 5627 5627 5627 5626 5626 5625 5624 5623 5622 5621 5620 5618 5616 5614 5612 5610 5609 5609 5607 5604 5602 5600 5597 5595 5593 5591 5589 5587
5609 5610 5610 5611 5612 5612 5612 5612 5612 5612 5612 5612 5612 5612 5612 5612 5612 5611 5611 5611 5610 5608 5608 5607 5605 5604 5602 5600 5598 5597 5594 5592 5591 5589 5586 5586 5583 5580 5578 5576 5574 5572 5570
5596 5597 5597 5597 5598 5599 5598 5598 5597 5597 5597 5598 5597 5597 5597 5596 5596 5595 5595 5595 5594 5593 5591 5590 5589 5588 5586 5583 5581 5579 5577 5575 5574 5572 5568 5567 5565 5563 5560 5559 5557 5555 5553
5583 5583 5583 5583 5584 5584 5584 5583 5582 5581 5582 5582 5582 5581 5581 5580 5580 5579 5579 5579 5578 5577 5575 5573 5572 5570 5569 5567 5564 5562 5560 5558 5557 5556 5552 5549 5548 5545 5544 5542 5540 5538 5537
5569 5569 5569 5569 5569 5569 5569 5569 5568 5567 5567 5567 5567 5566 5565 5564 5563 5562 5562 5561 5561 5560 5559 5557 5556 5554 5552 5551 5548 5545 5543 5541 5539 5538 5536 5533 5530 5528 5527 5527 5525 5523 5521